| time (UTC) | temp C | wind direction | speed KPH | gust KPH | rain 1hr cm | rain 24hr cm | rain mn cm | humidity % | barometer mb |
| 20260510102257 | 21 | 186 | 0.0 | 0.0 | 0.00 | 0.00 | 0.00 | 1 | 972.4 |
| 20260510101247 | 21 | 186 | 0.0 | 0.0 | 0.00 | 0.00 | 0.00 | 1 | 972.2 |
| 20260510100226 | 21 | 186 | 0.0 | 0.0 | 0.00 | 0.00 | 0.00 | 1 | 972.0 |
| 20260510095250 | 21 | 186 | 0.0 | 0.0 | 0.00 | 0.00 | 0.00 | 1 | 972.1 |
| 20260510094225 | 21 | 186 | 0.0 | 0.0 | 0.00 | 0.00 | 0.00 | 1 | 972.2 |
| 20260510093158 | 21 | 186 | 0.0 | 0.0 | 0.00 | 0.00 | 0.00 | 1 | 972.0 |
| 20260510092155 | 21 | 186 | 0.0 | 0.0 | 0.00 | 0.00 | 0.00 | 1 | 972.1 |
| 20260510090004 | 21 | 183 | 0.0 | 0.0 | 0.00 | 0.00 | 0.00 | 1 | 971.9 |
| 20260510084935 | 21 | 183 | 0.0 | 0.0 | 0.00 | 0.00 | 0.00 | 1 | 971.9 |
| 20260510083908 | 21 | 183 | 0.0 | 0.0 | 0.00 | 0.00 | 0.00 | 1 | 972.2 |
| 20260510082854 | 21 | 183 | 0.0 | 0.0 | 0.00 | 0.00 | 0.00 | 1 | 972.2 |
| 20260510081828 | 21 | 183 | 0.0 | 0.0 | 0.00 | 0.00 | 0.00 | 1 | 972.1 |
| 20260510080815 | 21 | 183 | 0.0 | 0.0 | 0.00 | 0.00 | 0.00 | 1 | 972.3 |
| 20260510075742 | 21 | 183 | 0.0 | 0.0 | 0.00 | 0.00 | 0.00 | 1 | 972.4 |
| 20260510074709 | 21 | 183 | 0.0 | 0.0 | 0.00 | 0.00 | 0.00 | 1 | 972.5 |
| 20260510073712 | 21 | 183 | 0.0 | 0.0 | 0.00 | 0.00 | 0.00 | 1 | 972.6 |
| 20260510072654 | 21 | 183 | 0.0 | 0.0 | 0.00 | 0.00 | 0.00 | 1 | 972.5 |
| 20260510071702 | 21 | 183 | 0.0 | 0.0 | 0.00 | 0.00 | 0.00 | 1 | 972.4 |
| 20260510065544 | 21 | 182 | 0.0 | 0.0 | 0.00 | 0.00 | 0.00 | 7 | 972.3 |
| 20260510064522 | 21 | 181 | 0.0 | 0.0 | 0.00 | 0.00 | 0.00 | 9 | 972.4 |
| 20260510063532 | 21 | 182 | 0.0 | 0.0 | 0.00 | 0.00 | 0.00 | 14 | 972.4 |
| 20260510061429 | 22 | 182 | 0.0 | 0.0 | 0.00 | 0.00 | 0.00 | 29 | 972.4 |
| 20260510060445 | 22 | 182 | 0.0 | 0.0 | 0.00 | 0.00 | 0.00 | 32 | 972.3 |
| 20260510055434 | 22 | 180 | 0.0 | 0.0 | 0.00 | 0.00 | 0.00 | 30 | 972.1 |
| 20260510054406 | 22 | 180 | 0.0 | 0.0 | 0.00 | 0.00 | 0.00 | 29 | 972.2 |
| 20260510053421 | 22 | 180 | 0.0 | 0.0 | 0.00 | 0.00 | 0.00 | 18 | 972.2 |
| 20260510051309 | 22 | 180 | 0.0 | 0.0 | 0.00 | 0.00 | 0.00 | 1 | 972.3 |
| 20260510050326 | 22 | 180 | 0.0 | 0.0 | 0.00 | 0.00 | 0.00 | 1 | 972.2 |
| 20260510045348 | 22 | 180 | 0.0 | 0.0 | 0.00 | 0.00 | 0.00 | 1 | 972.2 |
| 20260510043210 | 23 | 180 | 0.0 | 0.0 | 0.00 | 0.00 | 0.00 | 1 | 972.1 |
| 20260510042219 | 23 | 180 | 0.0 | 0.0 | 0.00 | 0.00 | 0.00 | 1 | 972.2 |
| 20260510041148 | 23 | 180 | 0.0 | 0.0 | 0.00 | 0.00 | 0.00 | 1 | 972.1 |
| 20260510040205 | 23 | 180 | 0.0 | 0.0 | 0.00 | 0.00 | 0.00 | 2 | 972.1 |
| 20260510035145 | 23 | 180 | 0.0 | 0.0 | 0.00 | 0.00 | 0.00 | 2 | 972.0 |
| 20260510034119 | 23 | 180 | 0.0 | 0.0 | 0.00 | 0.00 | 0.00 | 2 | 972.0 |
| 20260510033058 | 23 | 180 | 0.0 | 0.0 | 0.00 | 0.00 | 0.00 | 4 | 971.9 |
| 20260510032029 | 24 | 180 | 0.0 | 0.0 | 0.00 | 0.00 | 0.00 | 11 | 971.8 |
| 20260510031046 | 24 | 180 | 0.0 | 0.0 | 0.00 | 0.00 | 0.00 | 11 | 971.8 |
| 20260510030107 | 23 | 180 | 0.0 | 0.0 | 0.00 | 0.00 | 0.00 | 14 | 971.6 |
| 20260510025108 | 23 | 180 | 0.0 | 0.0 | 0.00 | 0.00 | 0.00 | 23 | 971.5 |
| 20260510024101 | 23 | 180 | 0.0 | 0.0 | 0.00 | 0.00 | 0.00 | 30 | 971.3 |
| 20260510021902 | 24 | 180 | 0.0 | 0.0 | 0.00 | 0.00 | 0.00 | 50 | 971.0 |
| 20260510020918 | 24 | 180 | 0.0 | 0.0 | 0.00 | 0.00 | 0.00 | 55 | 970.9 |
| 20260510015846 | 25 | 180 | 0.0 | 0.0 | 0.00 | 0.00 | 0.00 | 60 | 970.7 |
| 20260510014853 | 25 | 180 | 0.0 | 0.0 | 0.00 | 0.00 | 0.00 | 62 | 970.7 |
| 20260510013821 | 26 | 180 | 0.0 | 0.0 | 0.00 | 0.00 | 0.00 | 62 | 970.6 |
| 20260510011624 | 27 | 180 | 0.0 | 0.0 | 0.00 | 0.00 | 0.00 | 61 | 970.5 |
| 20260510010630 | 27 | 180 | 0.0 | 0.0 | 0.00 | 0.00 | 0.00 | 59 | 970.3 |
| 20260510005618 | 28 | 180 | 0.0 | 0.0 | 0.00 | 0.00 | 0.00 | 57 | 970.3 |
| 20260510002251 | 29 | 180 | 0.0 | 0.0 | 0.00 | 0.00 | 0.00 | 54 | 969.9 |
| 20260510000128 | 30 | 180 | 0.0 | 0.0 | 0.00 | 0.00 | 0.00 | 51 | 969.8 |
| 20260509235119 | 31 | 180 | 0.0 | 0.0 | 0.00 | 0.00 | 0.00 | 49 | 969.7 |
| 20260509233026 | 32 | 180 | 0.0 | 0.0 | 0.00 | 0.00 | 0.00 | 46 | 969.7 |
| 20260509232047 | 32 | 180 | 0.0 | 0.0 | 0.00 | 0.00 | 0.00 | 45 | 969.6 |
| 20260509231052 | 33 | 180 | 0.0 | 0.0 | 0.00 | 0.00 | 0.00 | 44 | 969.6 |
| 20260509230046 | 33 | 180 | 0.0 | 0.0 | 0.00 | 0.00 | 0.00 | 43 | 969.5 |
| 20260509225023 | 33 | 180 | 0.0 | 0.0 | 0.00 | 0.00 | 0.00 | 44 | 969.6 |
| 20260509224024 | 33 | 178 | 0.0 | 4.8 | 0.00 | 0.00 | 0.00 | 43 | 969.5 |
| 20260509221919 | 33 | 175 | 0.0 | 1.6 | 0.00 | 0.00 | 0.00 | 46 | 969.5 |
| 20260509214742 | 32 | 175 | 0.0 | 3.2 | 0.00 | 0.00 | 0.00 | 48 | 969.7 |
| 20260509213746 | 32 | 173 | 0.0 | 3.2 | 0.00 | 0.00 | 0.00 | 50 | 969.8 |
| 20260509212722 | 32 | 173 | 0.0 | 0.0 | 0.00 | 0.00 | 0.00 | 50 | 970.0 |
| 20260509211744 | 32 | 173 | 0.0 | 0.0 | 0.00 | 0.00 | 0.00 | 52 | 970.0 |
| 20260509210736 | 32 | 173 | 0.0 | 4.8 | 0.00 | 0.00 | 0.00 | 49 | 970.1 |
| 20260509204618 | 31 | 196 | 0.0 | 3.2 | 0.00 | 0.00 | 0.00 | 53 | 970.3 |
| 20260509203630 | 31 | 199 | 0.0 | 3.2 | 0.00 | 0.00 | 0.00 | 48 | 970.5 |
| 20260509202612 | 31 | 204 | 0.0 | 3.2 | 0.00 | 0.00 | 0.00 | 48 | 970.6 |
| 20260509201602 | 32 | 182 | 0.0 | 3.2 | 0.00 | 0.00 | 0.00 | 46 | 971.0 |
| 20260509200534 | 32 | 257 | 0.0 | 0.0 | 0.00 | 0.00 | 0.00 | 51 | 971.2 |
| 20260509195525 | 33 | 257 | 0.0 | 0.0 | 0.00 | 0.00 | 0.00 | 46 | 971.1 |
| 20260509194513 | 33 | 256 | 0.0 | 0.0 | 0.00 | 0.00 | 0.00 | 47 | 971.0 |
| 20260509193527 | 33 | 257 | 0.0 | 0.0 | 0.00 | 0.00 | 0.00 | 52 | 971.0 |
| 20260509191353 | 33 | 257 | 0.0 | 0.0 | 0.00 | 0.00 | 0.00 | 53 | 971.1 |
| 20260509190319 | 32 | 257 | 0.0 | 0.0 | 0.00 | 0.00 | 0.00 | 54 | 971.3 |
| 20260509185310 | 32 | 257 | 0.0 | 0.0 | 0.00 | 0.00 | 0.00 | 55 | 971.5 |
| 20260509184316 | 31 | 257 | 0.0 | 0.0 | 0.00 | 0.00 | 0.00 | 56 | 971.6 |
| 20260509183244 | 31 | 257 | 0.0 | 0.0 | 0.00 | 0.00 | 0.00 | 57 | 971.8 |
| 20260509182234 | 31 | 257 | 0.0 | 0.0 | 0.00 | 0.00 | 0.00 | 57 | 971.9 |
| 20260509181235 | 31 | 257 | 0.0 | 0.0 | 0.00 | 0.00 | 0.00 | 56 | 971.9 |
| 20260509180225 | 30 | 257 | 0.0 | 0.0 | 0.00 | 0.00 | 0.00 | 57 | 972.2 |
| 20260509175203 | 30 | 257 | 0.0 | 0.0 | 0.00 | 0.00 | 0.00 | 60 | 972.1 |
| 20260509174221 | 30 | 257 | 0.0 | 0.0 | 0.00 | 0.00 | 0.00 | 59 | 972.2 |
| 20260509173235 | 30 | 257 | 0.0 | 0.0 | 0.00 | 0.00 | 0.00 | 58 | 972.4 |
| 20260509172204 | 31 | 257 | 0.0 | 0.0 | 0.00 | 0.00 | 0.00 | 58 | 972.8 |
| 20260509165943 | 29 | 257 | 0.0 | 0.0 | 0.00 | 0.00 | 0.00 | 54 | 972.7 |
| 20260509164945 | 28 | 257 | 0.0 | 0.0 | 0.00 | 0.00 | 0.00 | 50 | 972.7 |
| 20260509164007 | 27 | 257 | 0.0 | 0.0 | 0.00 | 0.00 | 0.00 | 39 | 972.7 |
| 20260509162941 | 27 | 257 | 0.0 | 4.8 | 0.00 | 0.00 | 0.00 | 6 | 972.7 |
| 20260509161941 | 26 | 229 | 0.0 | 3.2 | 0.00 | 0.00 | 0.00 | 1 | 972.9 |
| 20260509155848 | 25 | 227 | 0.0 | 0.0 | 0.00 | 0.00 | 0.00 | 1 | 973.0 |
| 20260509154911 | 25 | 227 | 0.0 | 0.0 | 0.00 | 0.00 | 0.00 | 1 | 972.9 |
| 20260509153905 | 25 | 227 | 0.0 | 0.0 | 0.00 | 0.00 | 0.00 | 1 | 973.0 |
| 20260509152901 | 25 | 227 | 0.0 | 0.0 | 0.00 | 0.00 | 0.00 | 1 | 972.8 |
| 20260509151859 | 26 | 226 | 0.0 | 0.0 | 0.00 | 0.00 | 0.00 | 1 | 972.5 |
| 20260509150905 | 26 | 227 | 0.0 | 1.6 | 0.00 | 0.00 | 0.00 | 1 | 972.3 |
| 20260509144736 | 27 | 223 | 0.0 | 0.0 | 0.00 | 0.00 | 0.00 | 11 | 972.2 |
| 20260509143758 | 27 | 223 | 0.0 | 3.2 | 0.00 | 0.00 | 0.00 | 3 | 972.3 |
| 20260509142811 | 26 | 222 | 0.0 | 1.6 | 0.00 | 0.00 | 0.00 | 1 | 972.0 |
| 20260509140646 | 26 | 220 | 0.0 | 1.6 | 0.00 | 0.00 | 0.00 | 1 | 971.5 |
| 20260509135627 | 24 | 212 | 0.0 | 1.6 | 0.00 | 0.00 | 0.00 | 1 | 971.3 |
| 20260509134634 | 23 | 211 | 0.0 | 4.8 | 0.00 | 0.00 | 0.00 | 1 | 971.4 |
| 20260509133659 | 23 | 209 | 0.0 | 0.0 | 0.00 | 0.00 | 0.00 | 1 | 971.5 |
| 20260509131502 | 22 | 209 | 0.0 | 0.0 | 0.00 | 0.00 | 0.00 | 1 | 971.7 |
| 20260509130449 | 22 | 209 | 0.0 | 0.0 | 0.00 | 0.00 | 0.00 | 1 | 971.8 |
| 20260509125453 | 22 | 209 | 0.0 | 0.0 | 0.00 | 0.00 | 0.00 | 1 | 972.0 |
| 20260509123324 | 22 | 209 | 0.0 | 0.0 | 0.00 | 0.00 | 0.00 | 1 | 972.1 |
| 20260509122305 | 22 | 209 | 0.0 | 0.0 | 0.00 | 0.00 | 0.00 | 1 | 971.9 |
| 20260509121246 | 22 | 209 | 0.0 | 0.0 | 0.00 | 0.00 | 0.00 | 1 | 971.9 |
| 20260509120240 | 22 | 209 | 0.0 | 0.0 | 0.00 | 0.00 | 0.00 | 1 | 972.2 |
| 20260509114027 | 22 | 209 | 0.0 | 0.0 | 0.00 | 0.00 | 0.00 | 1 | 972.2 |
| 20260509113016 | 22 | 209 | 0.0 | 0.0 | 0.00 | 0.00 | 0.00 | 1 | 972.4 |
| 20260509111946 | 22 | 209 | 0.0 | 0.0 | 0.00 | 0.00 | 0.00 | 1 | 972.9 |
| 20260509111010 | 22 | 209 | 0.0 | 0.0 | 0.00 | 0.00 | 0.00 | 1 | 973.1 |
| 20260509110022 | 22 | 209 | 0.0 | 0.0 | 0.00 | 0.00 | 0.00 | 1 | 973.3 |
| 20260509103834 | 22 | 209 | 0.0 | 0.0 | 0.00 | 0.00 | 0.00 | 1 | 973.1 |
| 20260509102826 | 22 | 209 | 0.0 | 0.0 | 0.00 | 0.00 | 0.00 | 1 | 973.3 |